CAPE
4 60 7 3 0 0 0 0 0 0 0 0 0 0 0 0 0 0 0 0 0 0 0 0 0 0 0 0 0 0 0 0 0 0 0 0 0 0 0 0 0 0 0 0
18 41 0 0 0 0 0 0 0 0 0 0 0 0 0 0 0 0 0 0 0 0 0 0 0 0 0 0 0 0 0 0 0 0 0 0 0 0 0 0 0 0 0 0
25 0 0 0 0 0 0 0 0 0 0 0 0 0 0 0 0 0 0 0 0 0 0 0 0 0 0 0 0 0 0 0 0 0 0 0 0 0 0 0 0 0 0 0
16 0 0 0 0 2 6 0 0 0 0 0 0 0 0 0 0 0 0 0 0 0 0 0 0 0 0 0 0 0 0 0 0 0 0 0 0 0 0 0 0 0 0 0
7 2 15 0 0 0 0 0 0 0 6 2 0 1 0 0 0 0 0 0 0 0 0 0 0 0 0 0 0 0 0 0 0 0 0 0 0 0 0 0 0 0 0 0
0 0 9 0 0 0 0 2 1 2 0 11 0 0 0 0 0 0 0 0 0 0 0 0 0 0 0 0 0 0 0 0 0 0 0 0 0 0 0 0 0 0 0 0
0 0 0 36 13 1 0 2 19 19 24 14 0 0 0 0 0 0 0 0 0 0 0 0 0 0 0 0 0 0 0 0 0 0 0 0 0 0 0 0 0 0 0 0
0 0 0 1 9 0 5 0 0 2 0 0 0 0 0 0 0 0 0 0 0 0 0 0 0 0 0 0 0 0 0 0 0 0 0 0 0 0 0 0 0 0 0 0
4 0 0 0 0 15 2 0 0 0 0 0 0 0 0 0 0 0 0 0 0 0 0 0 0 0 0 0 0 0 0 0 0 0 0 0 0 0 0 0 0 0 0 0
9 0 0 0 0 3 5 0 4 0 1 1 1 0 0 0 0 0 0 0 0 0 0 0 0 0 0 0 0 0 0 0 0 0 0 0 0 0 0 0 0 0 0 0
3 0 0 1 0 0 8 8 3 0 0 0 0 0 0 0 0 0 0 0 0 0 0 0 0 0 0 0 0 0 0 0 0 0 0 0 0 0 0 0 0 0 0 0
0 1 0 0 0 0 0 0 0 0 0 0 0 0 0 0 0 0 0 0 0 0 0 0 0 0 0 0 0 0 0 0 0 0 0 0 0 0 0 0 0 0 0 0
1 0 0 0 0 0 0 0 0 0 0 0 0 0 0 0 0 0 0 0 0 0 0 0 0 0 0 0 0 0 0 0 0 0 0 0 0 0 0 0 0 0 0 0
1 0 1 0 0 0 0 0 0 5 12 0 0 0 0 0 0 0 1 2 0 0 0 0 0 0 0 0 0 0 0 0 0 0 0 0 0 0 0 0 0 0 0 0
0 2 0 0 0 0 0 0 0 0 0 0 0 0 0 0 0 0 0 0 0 0 0 0 0 0 0 0 0 0 0 0 0 0 0 0 0 0 0 0 0 0 0 0
0 2 0 0 0 0 0 0 0 0 0 0 0 0 0 0 0 0 0 0 0 0 0 0 0 0 0 0 0 0 0 0 0 0 0 0 0 0 0 0 0 0 0 0
3 0 4 0 0 0 0 0 0 0 0 0 0 0 0 0 0 0 0 0 0 0 0 0 0 0 0 0 0 0 0 0 0 0 0 0 0 0 0 0 0 0 0 0
4 0 0 0 0 0 0 0 0 0 0 0 0 0 0 0 0 0 0 0 0 0 0 0 0 0 0 0 0 0 0 0 0 0 0 0 0 0 0 0 0 0 0 0
2 0 0 0 0 0 0 0 0 0 0 0 0 0 0 0 0 0 0 0 0 0 0 0 0 0 0 0 0 0 0 0 0 0 0 0 0 0 0 0 0 0 0 0
0 0 0 0 0 0 0 0 0 0 0 0 0 0 0 0 0 0 0 0 0 0 0 0 0 0 0 0 0 0 0 0 0 0 0 0 0 0 0 0 0 0 0 0
0 0 0 0 0 0 0 0 0 0 0 0 0 0 0 0 0 0 0 0 0 0 0 0 0 0 0 0 0 0 0 0 0 0 0 0 0 0 0 0 0 0 0 0
0 0 0 0 0 0 0 0 0 0 0 0 0 0 0 0 0 0 0 0 0 0 0 0 0 0 0 0 0 0 0 0 0 0 0 0 0 0 0 0 0 0 0 0
0 0 0 0 1 0 0 0 0 0 0 0 0 0 0 0 0 0 0 0 0 0 0 0 0 0 0 0 0 0 0 0 0 0 0 0 0 0 0 0 0 0 0 0
0 0 0 0 1 0 0 0 0 0 0 0 0 0 0 0 0 0 0 0 0 0 0 0 0 0 0 0 0 0 0 0 0 0 0 0 0 0 0 0 0 0 0 0
0 0 0 0 0 0 0 0 0 0 0 0 0 0 0 0 0 0 0 0 0 0 0 0 0 0 0 0 0 0 0 0 0 0 0 0 0 0 0 0 0 0 0 0
0 0 0 0 0 0 0 0 0 0 0 0 0 0 0 0 0 0 0 0 0 0 0 0 0 0 0 0 0 0 0 0 0 0 0 0 0 0 0 0 0 0 0 0
CIN
0 0 -2 -2 0 0 0 0 0 0 0 0 0 0 0 0 0 0 0 0 0 0 0 0 0 0 0 0 0 0 0 0 0 0 0 0 0 0 0 0 0 0 0 0
-12 -1 0 0 0 0 0 0 0 0 0 0 0 0 0 0 0 0 0 0 0 0 0 0 0 0 0 0 0 0 0 0 0 0 0 0 0 0 0 0 0 0 0 0
0 0 0 0 -2 -1 0 0 0 0 0 0 0 0 0 0 0 0 0 0 0 0 0 0 0 0 0 0 0 0 0 0 0 0 0 0 0 0 0 0 0 0 0 0
0 0 0 0 0 -4 -1 0 0 0 0 0 -6 0 0 0 0 0 0 0 0 0 0 0 0 0 0 0 0 0 0 0 0 0 0 0 0 0 0 0 0 0 0 0
-3 0 -40 0 0 0 -9 0 0 -1 -7 -10 -14 -2 0 0 0 0 0 0 0 0 0 0 0 0 0 0 0 0 0 0 0 0 0 0 0 0 0 0 0 0 0 0
0 0 0 0 0 0 0 -2 -22 -19 -9 -7 0 -1 0 0 0 0 0 0 0 0 0 0 0 0 0 0 0 0 0 0 0 0 0 0 0 0 0 0 0 0 0 0
0 0 0 -2 0 0 0 -19 -7 -6 -2 -12 0 0 0 0 0 0 0 0 0 0 0 0 0 0 0 0 0 0 0 0 0 0 0 0 0 0 0 0 0 0 0 0
0 0 0 0 0 0 0 0 -2 -9 0 0 0 -16 0 0 0 0 0 0 0 0 0 0 0 0 0 0 0 0 0 0 0 0 0 0 0 0 0 0 0 0 0 0
0 0 0 0 0 -2 -1 -1 0 0 0 0 0 0 0 0 0 0 0 0 0 0 0 0 0 0 0 0 0 0 0 0 0 0 0 0 0 0 0 0 0 0 0 0
-3 0 0 0 0 -1 -7 0 -9 0 -3 -10 -2 0 0 0 0 0 0 0 0 0 0 0 0 0 0 0 0 0 0 0 0 0 0 0 0 0 0 0 0 0 0 0
-5 0 0 0 -1 0 0 -2 -4 0 0 0 0 0 0 0 0 0 0 0 0 0 0 0 0 0 0 0 0 0 0 0 0 0 0 0 0 0 0 0 0 0 0 0
0 0 0 0 0 0 0 0 0 0 0 0 0 0 0 0 0 0 0 0 0 0 0 0 0 0 0 0 0 0 0 0 0 0 0 0 0 0 0 0 0 0 0 0
0 0 0 0 0 0 0 0 0 -5 -4 0 -1 0 0 0 0 0 0 0 0 0 0 0 0 0 0 0 0 0 0 0 0 0 0 0 0 0 0 0 0 0 0 0
0 0 0 0 0 0 0 0 0 -3 -10 0 0 0 0 0 0 0 0 0 0 0 0 0 0 0 0 0 0 0 0 0 0 0 0 0 0 0 0 0 0 0 0 0
0 0 0 0 0 0 0 0 0 0 0 -13 -13 0 0 0 0 0 0 0 0 0 0 0 0 0 0 0 0 0 0 0 0 0 0 0 0 0 0 0 0 0 0 0
0 0 0 0 0 0 0 0 0 0 0 0 0 0 0 0 0 0 0 0 0 0 0 0 0 0 0 0 0 0 0 0 0 0 0 0 0 0 0 0 0 0 0 0
-1 0 -3 0 0 0 0 0 0 0 0 0 0 0 0 0 0 0 0 0 0 0 0 0 0 0 0 0 0 0 0 0 0 0 0 0 0 0 0 0 0 0 0 0
0 0 0 -2 0 0 0 0 0 0 0 0 0 0 0 0 0 0 0 0 0 0 0 0 0 0 0 0 0 0 0 0 0 0 0 0 0 0 0 0 0 0 0 0
0 0 0 0 0 0 0 0 0 0 0 0 0 0 0 0 0 0 0 0 0 0 0 0 0 0 0 0 0 0 0 0 0 0 0 0 0 0 0 0 0 0 0 0
0 0 0 0 0 0 0 0 0 0 0 0 0 0 0 0 0 0 0 0 0 0 0 0 0 0 0 0 0 0 0 0 0 0 0 0 0 0 0 0 0 0 0 0
0 0 0 0 0 0 0 0 0 0 0 0 0 0 0 0 0 0 0 0 0 0 0 0 0 0 0 0 0 0 0 0 0 0 0 0 0 0 0 0 0 0 0 0
0 0 0 0 0 0 0 0 0 0 0 0 0 0 0 0 0 0 0 0 0 0 0 0 0 0 0 0 0 0 0 0 0 0 0 0 0 0 0 0 0 0 0 0
0 0 0 0 0 0 0 0 0 0 0 0 0 0 0 0 0 0 0 0 0 0 0 0 0 0 0 0 0 0 0 0 0 0 0 0 0 0 0 0 0 0 0 0
0 0 0 0 0 0 0 0 0 0 0 0 0 0 0 0 0 0 0 0 0 0 0 0 0 0 0 0 0 0 0 0 0 0 0 0 0 0 0 0 0 0 0 0
0 0 0 0 0 0 0 0 0 0 0 0 0 0 0 0 0 0 0 0 0 0 0 0 0 0 0 0 0 0 0 0 0 0 0 0 0 0 0 0 0 0 0 0
0 0 0 0 0 0 0 0 0 0 0 0 0 0 0 0 0 0 0 0 0 0 0 0 0 0 0 0 0 0 0 0 0 0 0 0 0 0 0 0 0 0 0 0
Wind_Speed
23 19 21 28 27 24 21 13 19 13 13 5 17 23 17 14 9 8 9 12 11 13 14 9 10 13 12 13 17 18 17 14 12 8 7 6 8 4 4 4 7 7 6 6
22 27 28 28 22 21 19 22 22 7 8 14 18 23 7 11 16 17 14 12 11 8 8 10 10 10 16 18 17 17 18 17 14 11 8 5 5 2 3 4 5 7 7 7
24 28 26 23 21 21 23 22 22 15 3 13 3 18 13 6 7 8 12 17 10 11 12 10 11 15 10 15 18 17 17 18 15 13 8 5 5 4 2 3 4 4 7 7
19 21 18 24 28 23 24 21 23 14 8 16 8 18 15 14 16 17 18 10 10 11 9 11 17 14 16 17 13 15 15 16 13 15 13 13 12 6 4 4 3 5 6 6
8 5 28 20 26 27 21 20 18 14 17 15 10 10 11 8 16 21 18 15 17 18 18 19 19 22 22 17 15 13 14 14 14 14 14 11 8 5 4 4 7 5 5 6
25 17 4 9 13 18 19 6 16 16 12 18 23 17 19 13 19 12 19 18 20 21 21 18 20 14 13 11 13 13 16 14 14 13 12 14 13 9 6 5 6 4 4 4
17 23 21 12 9 10 14 14 10 13 15 14 13 14 22 10 18 20 20 21 18 19 19 17 16 16 14 15 13 11 14 12 14 13 12 11 11 10 11 9 8 7 4 3
7 10 16 16 23 14 12 16 10 13 4 6 5 10 14 15 22 17 13 13 7 9 10 14 16 16 16 17 15 15 14 13 13 13 10 8 8 6 5 7 6 6 5 5
5 8 1 8 10 14 7 14 10 3 3 3 5 6 9 6 11 13 15 8 18 17 9 8 10 13 15 15 16 17 16 14 12 11 9 7 7 7 6 6 5 4 5 3
2 11 3 1 7 5 8 5 2 4 12 14 5 3 7 9 11 13 12 10 9 6 5 7 9 10 10 12 11 12 12 14 12 10 8 8 7 6 5 5 6 6 5 5
4 7 4 8 8 14 7 7 3 3 6 4 3 8 11 16 5 7 10 8 7 4 6 6 7 7 9 10 11 10 11 12 10 10 7 8 6 6 5 5 5 6 5 5
7 6 4 3 4 1 5 8 11 6 5 3 5 8 1 0 4 3 11 8 2 4 6 8 9 9 9 9 9 9 7 9 7 6 7 7 7 7 6 5 5 5 5 3
5 3 4 4 2 4 2 4 5 3 3 8 5 8 5 4 5 5 5 3 3 4 6 7 9 8 8 8 8 9 6 7 7 7 7 7 6 6 5 5 5 5 5 5
7 4 2 3 4 2 3 2 2 10 5 5 8 12 6 6 4 7 4 3 5 5 5 6 7 9 8 7 7 7 8 5 5 5 5 5 5 5 5 4 5 5 5 5
4 5 2 5 6 3 3 3 3 8 9 6 5 5 5 4 4 6 5 2 5 6 8 5 6 7 9 9 9 7 6 6 4 5 4 4 3 3 3 4 4 4 4 5
5 5 3 5 2 1 1 5 6 4 4 6 6 10 8 3 1 4 7 6 8 8 6 7 7 7 8 10 7 9 7 5 5 4 4 4 4 4 4 3 3 4 4 4
4 2 4 5 4 3 5 5 5 3 7 5 6 6 12 8 5 2 4 4 6 8 10 10 9 7 7 9 10 8 8 5 5 4 4 4 3 3 4 4 5 4 4 3
7 2 2 3 4 4 5 2 2 5 3 5 4 8 9 9 10 7 5 3 5 5 5 7 9 8 7 5 8 8 9 7 5 5 5 4 4 3 2 3 4 4 4 5
14 4 3 2 1 3 3 6 3 4 3 6 9 11 8 9 7 4 9 8 6 6 3 5 7 6 7 7 7 8 7 7 6 5 5 4 4 4 4 4 3 2 2 3
2 4 2 1 2 2 1 5 4 2 2 5 2 11 9 12 4 3 11 9 8 6 6 8 9 9 8 5 7 7 7 7 7 6 5 4 4 3 3 2 1 2 2 3
3 3 3 4 3 2 3 11 2 2 5 10 6 6 7 5 3 6 8 7 6 6 8 10 9 9 6 4 5 5 5 4 4 4 4 3 3 2 2 2 2 3 2 2
4 4 3 2 4 2 14 1 5 3 4 4 5 4 4 5 5 4 5 5 6 7 8 7 8 8 6 4 5 5 5 5 4 4 3 3 2 3 3 4 3 2 3 3
4 4 2 4 3 3 3 6 4 2 3 5 5 5 4 6 3 3 1 3 5 5 4 4 5 6 4 3 4 5 4 3 3 3 4 4 3 3 3 3 3 2 2 3
6 7 3 2 3 2 4 1 5 4 5 8 7 5 5 5 3 1 1 2 3 3 3 3 5 5 3 2 3 4 5 4 4 4 4 3 3 3 2 2 2 2 2 1
3 6 7 2 2 1 4 9 9 8 6 9 8 5 6 6 3 1 1 2 3 3 2 2 3 4 4 3 3 3 4 4 3 2 2 2 2 2 2 2 2 2 2 3
4 3 3 2 3 3 6 10 11 10 10 9 8 9 9 7 6 3 2 1 2 3 3 2 2 3 2 2 3 3 3 3 3 2 2 2 2 2 2 2 2 4 6 7
Wind_Direction
221 223 221 219 212 223 229 228 241 241 239 230 231 250 235 235 248 233 240 233 226 222 225 201 188 189 172 175 174 178 172 173 160 159 158 164 181 167 163 176 163 161 163 162
214 219 221 225 220 224 222 231 246 270 226 228 249 256 210 216 235 228 227 235 231 225 201 194 182 180 183 179 179 177 179 170 173 171 164 151 154 163 161 158 169 165 161 163
251 225 220 211 213 214 222 221 231 222 190 248 286 271 238 229 249 255 240 242 233 215 214 194 189 194 180 178 182 180 176 173 172 160 139 105 84 72 114 176 165 177 160 163
242 249 227 216 216 209 224 215 229 226 218 242 159 263 247 238 237 242 236 221 223 210 212 204 196 191 195 198 176 174 171 171 167 162 166 165 177 166 193 154 149 164 164 161
237 212 198 207 213 204 226 219 225 224 230 242 221 250 247 205 234 237 238 222 220 222 205 209 203 203 201 182 175 163 162 169 167 169 169 166 165 151 141 137 156 163 168 163
253 252 282 238 247 205 221 152 218 225 224 228 224 215 254 221 227 239 249 241 227 227 227 216 214 202 192 170 169 165 163 166 164 166 165 170 169 156 144 150 161 167 166 170
251 248 243 220 255 243 211 180 212 215 218 238 211 202 238 203 230 230 236 245 237 233 231 225 200 189 176 173 165 157 162 162 165 164 164 163 165 161 166 166 167 161 158 178
209 302 167 191 209 207 210 197 194 217 204 229 149 218 242 222 245 250 244 248 258 247 233 212 201 188 178 167 160 160 164 159 159 158 157 151 146 158 160 161 154 168 175 179
295 253 210 174 172 174 183 207 220 83 347 114 184 276 305 213 235 253 246 249 248 239 226 200 176 176 168 162 163 159 160 157 153 147 136 140 143 144 153 157 149 159 150 165
323 299 229 176 105 262 217 158 225 243 221 232 235 245 227 269 225 251 278 251 258 252 168 141 141 148 151 145 136 139 146 148 141 138 143 146 145 140 139 139 151 150 134 128
336 245 312 159 185 175 175 204 198 162 157 175 199 246 205 235 230 257 272 292 256 160 133 124 117 109 118 116 127 125 129 133 137 139 133 136 139 134 135 142 143 148 134 154
210 271 297 288 288 30 199 199 181 181 221 214 169 266 297 325 228 249 281 283 175 115 113 113 107 107 103 101 105 106 110 119 120 122 128 136 134 136 148 152 159 154 156 157
333 325 301 308 324 31 231 207 200 86 81 202 151 265 344 341 312 264 277 10 76 111 98 107 102 101 102 97 99 100 80 106 107 118 127 123 131 142 162 165 158 165 166 174
276 233 306 309 295 192 303 305 242 215 232 208 220 269 279 308 307 313 310 156 136 108 122 105 106 106 101 94 93 94 94 73 91 99 114 134 146 160 170 167 172 179 181 179
46 316 247 281 256 243 229 249 268 246 257 248 250 221 276 289 309 286 271 138 117 146 135 124 137 133 124 117 112 104 98 107 97 111 126 140 129 137 152 168 175 180 181 192
338 289 341 287 42 157 248 347 313 300 318 269 242 276 337 353 281 192 225 174 173 171 149 131 131 136 140 132 134 132 124 122 122 136 143 143 148 154 166 159 167 181 182 182
259 254 342 279 332 351 39 328 340 21 30 322 15 347 328 332 290 271 247 226 224 200 163 162 163 157 154 151 144 144 130 127 133 141 152 154 146 154 168 176 176 194 202 184
265 6 285 277 349 34 235 128 321 78 50 14 317 314 313 306 312 15 4 269 233 204 173 157 145 141 134 131 119 128 130 144 147 147 148 149 153 149 148 169 184 181 178 198
218 219 287 105 216 125 34 2 6 355 342 10 340 336 323 311 301 56 6 348 302 194 166 148 125 112 118 121 124 132 134 138 146 154 159 149 148 156 173 192 188 205 197 206
181 205 247 355 96 44 253 314 197 227 350 357 338 344 337 332 18 359 345 346 6 35 104 114 107 103 111 108 126 135 143 148 159 161 152 141 155 160 173 181 177 221 219 214
344 23 216 255 92 355 302 314 176 34 306 328 342 325 339 2 307 316 337 353 26 51 79 97 92 98 97 116 122 131 132 118 111 108 109 117 127 159 174 170 191 219 220 201
21 328 13 15 72 17 342 6 55 311 311 285 319 295 303 294 321 333 344 12 32 54 69 82 107 118 125 124 123 130 139 135 120 111 122 144 164 196 160 168 189 206 185 198
42 5 352 28 59 69 30 71 346 308 284 311 304 312 261 294 304 311 15 37 71 66 77 84 105 112 107 117 134 148 136 120 115 135 169 182 185 192 175 172 193 185 186 204
359 12 29 126 42 101 58 135 23 349 354 332 325 305 323 322 306 334 162 111 94 102 119 121 131 129 122 110 111 120 140 144 162 172 167 185 190 179 197 210 206 203 196 217
341 336 334 51 45 355 123 47 10 351 352 350 339 329 346 334 315 229 176 153 150 142 119 138 145 134 140 134 123 122 138 153 174 178 177 204 191 210 209 227 210 217 222 192
354 357 5 294 54 305 304 0 7 353 353 347 346 346 351 6 349 359 43 104 168 152 100 75 76 110 130 166 175 177 168 175 176 179 189 199 191 209 210 225 282 283 268 259